Regional Weather Roundup
Issued by NWS

Home | Current Version | Previous Version | Graphics & Text | Print | Product List | Glossary On
Versions: 1 2 3 4 5 6 7 8 9 10 11 12 13 14 15 16 17 18 19 20 21 22 23 24 25 26 27 28 29 30 31 32 33 34 35 36 37 38 39 40 41 42 43 44 45 46 47 48 49 50
000
ASUS43 KLOT 300708
RWRIL

ILLINOIS REGIONAL WEATHER ROUNDUP
NATIONAL WEATHER SERVICE CHICAGO/ROMEOVILLE IL
200 AM CDT SAT MAY 30 2015

NOTE: "FAIR" INDICATES FEW OR NO CLOUDS BELOW 12,000 FEET WITH NO
SIGNIFICANT WEATHER AND/OR OBSTRUCTIONS TO VISIBILITY.

* THESE STATIONS ARE NOT UNDER NWS QUALITY CONTROL. THEY ALSO MAY NOT
  REPORT WEATHER SUCH AS PRECIPITATION OR FOG.

ILZ001-002-007-009-015-016-024-300800-
NORTHWEST ILLINOIS

CITY           SKY/WX    TMP DP  RH WIND       PRES   REMARKS
MOLINE         LGT RAIN  67  62  84 SW7       29.95S
STERLING*      CLOUDY    70  64  83 SW5       29.95S
SAVANNA*       CLOUDY    69  61  74 SW6       29.93S
$$

ILZ003-004-008-010-011-017-018-300800-
NORTH CENTRAL ILLINOIS

CITY           SKY/WX    TMP DP  RH WIND       PRES   REMARKS
ROCKFORD       CLOUDY    68  64  87 SW5       29.94F
FREEPORT*      CLOUDY    66  64  91 SW5       29.95F
ROCHELLE*      CLOUDY    66  65  96 CALM      29.94F
DE KALB*       CLOUDY    66  63  89 SW5       29.96S
PERU*          CLOUDY    71  65  81 SW9       29.96S
$$

ILZ005-006-012>014-019>023-300800-
NORTHEAST ILLINOIS

CITY           SKY/WX    TMP DP  RH WIND       PRES   REMARKS
CHICAGO-OHARE  MOCLDY    70  64  81 SW3       29.93S
CHICAGO-MIDWAY MOCLDY    73  65  75 SW8       29.94S
AURORA         MOCLDY    70  64  81 SW8       29.95S
LANSING*       MOCLDY    68  63  82 S5        29.96S
JOLIET*        MOCLDY    71  67  88 SW5       29.95S
WAUKEGAN       MOCLDY    70  63  78 CALM      29.92S
DUPAGE AIRPORT PTCLDY    68  65  90 SW7       29.93F
KANKAKEE*      CLOUDY    68  66  93 SW7       29.97S
WHEELING       PTCLDY    71  65  81 SW5       29.94S
MORRIS*        MOCLDY    69  65  88 SW5       29.94R
ROMEOVILLE*    MOCLDY    69  64  83 SW9       29.95S
NORTHERLY ISL    N/A     72  62  71 W3          N/A
$$

LMZ740>746-300800-
SOUTHERN LAKE MICHIGAN

STATION/POSITION SKY/WX   TEMP    WIND        PRES    VSBY  WAVE
                          AIR SEA DIR/SP/G                  HT/PER
                          (F)     (DEG/KT/KT) (MB)    (MI)  (FT/S)
SOUTHERN BUOY              46 38  200/ 10/ 10 1013.3S         0
HARRISON CRIB              73     220/ 18/ 22   N/A
BURNHAM HARBOR             72     240/  7/ 10   N/A
CALUMET HARBOR             71     200/  7/  9   N/A
BURNS HARBOR               70     190/ 11/ 14 1014.6F
MICHIGAN CITY              71     180/ 11/ 15   N/A
MICHIGAN CITY 6N           63 56  220/ 10/ 10   N/A           1
ST. JOSEPH                 64 58  220/ 10/ 12   N/A           1/ 3
$$

ILZ025>027-034>036-040-047-049-050-058-095>099-300800-
WEST-CENTRAL ILLINOIS

CITY           SKY/WX    TMP DP  RH WIND       PRES   REMARKS
QUINCY         LGT RAIN  66  64  93 CALM      29.96F
GALESBURG*     LGT RAIN  66  63  89 SW7       29.98S
MACOMB*        LGT RAIN  66  65  94 SW5       30.01S
JACKSONVILLE*  CLOUDY    68  67  96 N3        29.96F
PITTSFIELD*    HVY RAIN  66  64  92 N3        29.97F
$$

ILZ028>032-037-038-041>044-048-051>054-059>061-300800-
CENTRAL ILLINOIS

CITY           SKY/WX    TMP DP  RH WIND       PRES   REMARKS
PONTIAC        CLOUDY    69  68  96 SW3       29.98S
BLOOMINGTON    LGT RAIN  69  68  97 SW9       30.00R
DECATUR        CLOUDY    70  65  84 SW7       30.00R
PEORIA         RAIN      71  66  84 W6        29.99R
LACON*         CLOUDY    70  65  84 SW7       29.97R
LINCOLN*       CLOUDY    68  65  91 W8        29.98R
SPRINGFIELD    RAIN      68  66  93 N7        29.97F FOG
TAYLORVILLE    RAIN      68  64  88 W7        29.99S
$$

ILZ033-039-045-046-055>057-062-063-300800-
EAST-CENTRAL ILLINOIS

CITY           SKY/WX    TMP DP  RH WIND       PRES   REMARKS
CHAMPAIGN      CLOUDY    69  65  86 SW5       30.00S
DANVILLE*      CLOUDY    69  65  86 SW3       29.97F
RANTOUL*       CLOUDY    70  68  92 SW6       29.99S
MATTOON        MOCLDY    68  65  90 S6        29.99S
PARIS*         MOCLDY    68  64  85 S5        30.01S
$$

ILZ079-100>102-300800-
SOUTHWEST ILLINOIS

CITY           SKY/WX    TMP DP  RH WIND       PRES   REMARKS
ALTON          CLOUDY    69  69 100 SE3       29.97F
BELLEVILLE     CLOUDY    68  68 100 S2        29.96F
CAHOKIA*       CLOUDY    69  66  90 SE6       29.96F
SPARTA*        CLOUDY    68  67  97 SE8       29.99S
$$

ILZ064>066-069>071-074>076-080>082-084>086-088>090-092>094-300800-
SOUTH-CENTRAL ILLINOIS

CITY           SKY/WX    TMP DP  RH WIND       PRES   REMARKS
CARBONDALE     CLOUDY    69  67  93 E5        29.99F
CAIRO*         MOCLDY    74  69  85 SE6       29.99F
EFFINGHAM*     RAIN      68  65  90 S6        30.01F
MARION         CLOUDY    70  68  94 CALM      30.00F
MT. VERNON     MOCLDY    68  64  88 E3        30.00F
CENTRALIA*     CLOUDY    67  65  94 E3        29.98F
SALEM*         CLOUDY    70  67  90 E3        29.99F
METROPOLIS*    CLOUDY    73  70  88 S3        30.00S
$$

ILZ067-068-072-073-078-083-087-091-300800-
SOUTHEAST ILLINOIS

CITY           SKY/WX    TMP DP  RH WIND       PRES   REMARKS
LAWRENCEVILLE  PTCLDY    69  65  86 CALM      30.02S
FLORA*         CLEAR     68  65  92 SE5       30.00F
FAIRFIELD*     PTCLDY    68  66  92 CALM      30.00F
HARRISBURG*    CLEAR     68  67  96 N3        30.02S
ROBINSON*      PTCLDY    67  64  91 S5        30.02S
CARMI*         CLEAR     68  61  77 CALM      30.01F
$$

ABBREVIATIONS USED IN REMARKS
   TC - TEMPERATURE IN CELSIUS
  WCI - WIND CHILL INDEX
   HX - HEAT INDEX
  VSB - VISIBILITY
$$



USA.gov is the U.S. government's official web portal to all federal, state and local government web resources and services.